TimeCST,TemperatureF,Dew PointF,Humidity,Sea Level PressureIn,VisibilityMPH,Wind Direction,Wind SpeedMPH,Gust SpeedMPH,PrecipitationIn,Events,Conditions,WindDirDegrees,DateUTC
12:53 AM,55.9,46.9,72,30.05,10.0,Calm,Calm,-,N/A,,Scattered Clouds,0,2012-11-04 05:53:00
1:53 AM,52.0,48.9,89,30.06,10.0,SW,6.9,-,N/A,,Clear,220,2012-11-04 06:53:00
1:53 AM,51.1,48.0,89,30.06,10.0,WSW,6.9,-,N/A,,Clear,240,2012-11-04 07:53:00
2:53 AM,51.1,46.9,86,30.08,10.0,West,8.1,-,N/A,,Clear,260,2012-11-04 08:53:00
3:53 AM,48.9,45.0,86,30.09,10.0,West,5.8,-,N/A,,Clear,270,2012-11-04 09:53:00
4:53 AM,48.9,45.0,86,30.10,10.0,SW,8.1,-,N/A,,Clear,230,2012-11-04 10:53:00
5:53 AM,48.9,44.1,83,30.10,10.0,WSW,10.4,-,N/A,,Clear,240,2012-11-04 11:53:00
6:53 AM,46.9,43.0,86,30.11,10.0,WSW,10.4,-,N/A,,Clear,250,2012-11-04 12:53:00
7:53 AM,48.0,43.0,83,30.14,10.0,SW,5.8,-,N/A,,Clear,230,2012-11-04 13:53:00
8:53 AM,53.1,44.1,71,30.14,10.0,West,4.6,-,N/A,,Clear,280,2012-11-04 14:53:00
9:53 AM,59.0,46.0,62,30.14,10.0,WNW,6.9,-,N/A,,Clear,290,2012-11-04 15:53:00
10:53 AM,64.0,46.0,52,30.14,10.0,NW,5.8,-,N/A,,Clear,320,2012-11-04 16:53:00
11:53 AM,68.0,46.9,47,30.11,10.0,Variable,4.6,-,N/A,,Clear,0,2012-11-04 17:53:00
12:53 PM,71.1,48.0,44,30.08,10.0,Variable,4.6,-,N/A,,Clear,0,2012-11-04 18:53:00
1:53 PM,73.0,48.9,42,30.05,10.0,NW,6.9,-,N/A,,Clear,320,2012-11-04 19:53:00
2:53 PM,73.0,48.0,41,30.04,10.0,Calm,Calm,-,N/A,,Clear,0,2012-11-04 20:53:00
3:53 PM,75.9,48.9,38,30.02,10.0,Calm,Calm,-,N/A,,Clear,0,2012-11-04 21:53:00
4:53 PM,73.9,48.0,40,30.03,10.0,Calm,Calm,-,N/A,,Clear,0,2012-11-04 22:53:00
5:53 PM,70.0,50.0,49,30.04,10.0,Calm,Calm,-,N/A,,Clear,0,2012-11-04 23:53:00
6:53 PM,66.0,50.0,56,30.06,10.0,Calm,Calm,-,N/A,,Clear,0,2012-11-05 00:53:00
7:53 PM,63.0,48.9,60,30.07,10.0,SSE,5.8,-,N/A,,Clear,160,2012-11-05 01:53:00
8:53 PM,61.0,48.0,62,30.06,10.0,SSE,8.1,-,N/A,,Clear,160,2012-11-05 02:53:00
9:53 PM,63.0,48.0,58,30.05,10.0,South,11.5,-,N/A,,Clear,190,2012-11-05 03:53:00
10:53 PM,59.0,46.9,64,30.05,10.0,South,9.2,-,N/A,,Clear,180,2012-11-05 04:53:00